Time,TemperatureF,DewpointF,PressureIn,WindDirection,WindDirectionDegrees,WindSpeedMPH,WindSpeedGustMPH,Humidity,HourlyPrecipIn,Conditions,Clouds,dailyrainin,SoftwareType,DateUTC
2014-09-20 00:03:00,71.1,70.8,30.02,NNE,22,2.3,2.3,99,0.01,RA,,0.00,WeatherDisplay:10.37,2014-09-20 04:03:00,
2014-09-20 00:08:00,71.0,70.7,30.02,North,360,2.3,2.3,99,0.01,RA,,0.00,WeatherDisplay:10.37,2014-09-20 04:08:00,
2014-09-20 00:13:00,71.0,70.7,30.02,North,360,2.3,0.0,99,0.01,CLR,,0.00,WeatherDisplay:10.37,2014-09-20 04:13:00,
2014-09-20 00:18:00,71.1,70.8,30.02,SW,225,2.3,2.3,99,0.01,CLR,,0.00,WeatherDisplay:10.37,2014-09-20 04:18:00,
2014-09-20 00:23:00,71.1,70.8,30.02,SSW,202,2.3,2.3,99,0.00,CLR,,0.00,WeatherDisplay:10.37,2014-09-20 04:23:00,
2014-09-20 00:28:00,71.1,70.8,30.02,SSW,202,0.0,0.0,99,0.00,CLR,,0.00,WeatherDisplay:10.37,2014-09-20 04:28:00,
2014-09-20 00:33:00,71.0,70.7,30.02,SSW,202,0.0,0.0,99,0.00,CLR,,0.01,WeatherDisplay:10.37,2014-09-20 04:33:00,
2014-09-20 00:38:00,71.1,70.8,30.02,NE,45,2.3,2.3,99,0.01,RA,,0.01,WeatherDisplay:10.37,2014-09-20 04:38:00,
2014-09-20 00:43:00,71.0,70.7,30.01,NE,45,2.3,0.0,99,0.01,RA,,0.01,WeatherDisplay:10.37,2014-09-20 04:43:00,
2014-09-20 00:48:00,70.8,70.5,30.01,NE,45,2.3,2.3,99,0.01,CLR,,0.01,WeatherDisplay:10.37,2014-09-20 04:48:00,
2014-09-20 00:53:00,70.8,70.5,30.01,NE,45,0.0,0.0,99,0.02,RA,,0.02,WeatherDisplay:10.37,2014-09-20 04:53:00,
2014-09-20 00:58:00,70.8,70.5,30.00,NE,45,2.3,2.3,99,0.03,RA,,0.03,WeatherDisplay:10.37,2014-09-20 04:58:00,
2014-09-20 01:03:00,70.8,70.5,30.00,NE,45,1.2,1.2,99,0.03,RA,,0.03,WeatherDisplay:10.37,2014-09-20 05:03:00,
2014-09-20 01:08:00,70.8,70.5,30.00,NNE,22,1.2,1.2,99,0.04,RA,,0.04,WeatherDisplay:10.37,2014-09-20 05:08:00,
2014-09-20 01:13:00,70.7,70.4,30.00,NNE,22,0.0,0.0,99,0.05,RA,,0.05,WeatherDisplay:10.37,2014-09-20 05:13:00,
2014-09-20 01:18:00,70.7,70.4,30.00,NNE,22,1.2,0.0,99,0.05,RA,,0.06,WeatherDisplay:10.37,2014-09-20 05:18:00,
2014-09-20 01:24:00,70.6,70.3,29.99,North,360,2.3,2.3,99,0.06,RA,,0.07,WeatherDisplay:10.37,2014-09-20 05:24:00,
2014-09-20 01:29:00,70.6,70.3,29.99,North,360,2.3,2.3,99,0.07,RA,,0.07,WeatherDisplay:10.37,2014-09-20 05:29:00,
2014-09-20 01:34:00,70.7,70.4,29.99,North,360,2.3,2.3,99,0.07,RA,,0.07,WeatherDisplay:10.37,2014-09-20 05:34:00,
2014-09-20 01:39:00,70.8,70.5,29.99,NNE,22,2.3,2.3,99,0.07,RA,,0.08,WeatherDisplay:10.37,2014-09-20 05:39:00,
2014-09-20 01:44:00,70.8,70.5,29.98,NNE,22,2.3,2.3,99,0.07,RA,,0.08,WeatherDisplay:10.37,2014-09-20 05:44:00,
2014-09-20 01:49:00,70.8,70.5,29.98,NNE,22,2.3,2.3,99,0.08,RA,,0.09,WeatherDisplay:10.37,2014-09-20 05:49:00,
2014-09-20 01:54:00,70.7,70.4,29.98,NNE,22,2.3,2.3,99,0.07,RA,,0.09,WeatherDisplay:10.37,2014-09-20 05:54:00,
2014-09-20 01:59:00,70.8,70.5,29.98,NNE,22,3.5,3.5,99,0.06,CLR,,0.09,WeatherDisplay:10.37,2014-09-20 05:59:00,
2014-09-20 02:04:00,70.8,70.5,29.98,NE,45,2.3,2.3,99,0.06,-RA,,0.09,WeatherDisplay:10.37,2014-09-20 06:04:00,
2014-09-20 02:09:00,70.8,70.5,29.97,NE,45,3.5,3.5,99,0.05,-RA,,0.09,WeatherDisplay:10.37,2014-09-20 06:09:00,
2014-09-20 02:14:00,70.9,70.6,29.97,NE,45,3.5,3.5,99,0.04,-RA,,0.09,WeatherDisplay:10.37,2014-09-20 06:14:00,
2014-09-20 02:19:00,70.9,70.6,29.97,NE,45,4.6,4.6,99,0.03,-RA,,0.09,WeatherDisplay:10.37,2014-09-20 06:19:00,
2014-09-20 02:24:00,71.0,70.7,29.96,NE,45,3.5,3.5,99,0.02,-RA,,0.09,WeatherDisplay:10.37,2014-09-20 06:24:00,
2014-09-20 02:29:00,71.0,70.7,29.96,NE,45,4.0,4.0,99,0.02,-RA,,0.09,WeatherDisplay:10.37,2014-09-20 06:29:00,
2014-09-20 02:34:00,70.9,70.6,29.96,NNE,22,4.0,4.0,99,0.02,-RA,,0.09,WeatherDisplay:10.37,2014-09-20 06:34:00,
2014-09-20 02:39:00,70.8,70.5,29.96,NNE,22,3.5,3.5,99,0.01,-RA,,0.09,WeatherDisplay:10.37,2014-09-20 06:39:00,
2014-09-20 02:44:00,70.8,70.5,29.96,NNE,22,2.3,2.3,99,0.01,-RA,,0.09,WeatherDisplay:10.37,2014-09-20 06:44:00,
2014-09-20 02:49:00,70.9,70.6,29.96,ENE,67,2.3,2.3,99,0.00,-RA,,0.09,WeatherDisplay:10.37,2014-09-20 06:49:00,
2014-09-20 02:54:00,70.9,70.6,29.96,ENE,67,2.3,2.3,99,0.00,-RA,,0.09,WeatherDisplay:10.37,2014-09-20 06:54:00,